{"data":{"norad_id":59331,"intl_designator":"2024-057M","name":"STARLINK-31633","alt_names":[],"object_type":"PAYLOAD","status":"ACTIVE","operator":null,"country":"US","launch_date":"2024-03-25","launch_site_code":"AFETR","launch_vehicle":null,"mission":null,"orbit_class":"UNKNOWN","rcs_meters":null,"size_class":null,"mass_kg":null,"dimensions":null,"purposes":["comms"],"wikipedia_slug":null,"has_3d_model":false,"image_url":null,"decayed_at":null,"tle_current":{"epoch":"2026-09-21T10:26:55.674240Z","epoch_age_seconds":81312,"freshness":"FRESH","line1":"1 59331U 24057M   26264.43536660 -.00000018  00000+0  88788-5 0  9995","line2":"2 59331  43.0022 161.7932 0001045 280.4963  79.5771 15.27575009139779","mean_motion":15.27575009,"eccentricity":0.0001045,"inclination_deg":43.0022,"raan_deg":161.7932,"arg_perigee_deg":280.4963,"mean_anomaly_deg":79.5771,"bstar":8.8788e-6,"rev_number":13977,"period_min":94.267056708572,"perigee_km":482.34704542107,"apogee_km":483.78103643862,"semimajor_km":6861.2010409298,"source":"CELESTRAK","updated_at":"2026-09-22T09:00:48.900071Z"}}}